Riverside, CA

10:17 AM PDT on April 22, 2018 (GMT -0700)
Riverside Municipal

Weather History for KRAL - January, 2012

Change the Weather History Date:

Tuesday, January 31, 2012

  Actual Average Record
Temperature  
Mean Temperature 55 °F 55 °F  
Max Temperature 69 °F 66 °F 92 °F (2003)
Min Temperature 40 °F 44 °F 25 °F (1946)
Degree Days  
Heating Degree Days 10 10  
Month to date heating degree days 205 314  
Since 1 July heating degree days 753 845  
Cooling Degree Days 0 0  
Month to date cooling degree days 22 6  
Year to date cooling degree days 22 6  
Growing Degree Days 5 (Base 50)    
Moisture  
Dew Point 34 °F    
Average Humidity 40    
Maximum Humidity 62    
Minimum Humidity 17    
Precipitation  
Precipitation 0.00 in 0.09 in 0.82 in (1979)
Month to date precipitation 0.48 2.94  
Year to date precipitation 0.48 2.94  
Since 1 July precipitation 3.16  
Snow  
Snow 0.00 in - - ()
Month to date snowfall 0.0  
Year to date snowfall 0.0  
Snow Depth 0.00 in    
Sea Level Pressure  
Sea Level Pressure 30.05 in    
Wind  
Wind Speed 2 mph (West)    
Max Wind Speed 14 mph    
Max Gust Speed 20 mph    
Visibility 10 miles    
Events      
T = Trace of Precipitation, MM = Missing Value Source: NWS Daily Summary

Daily Weather History Graph

Daily Weather History Graph

Search for Another Location

Airport or City:

Astronomy

Jan. 31, 2012 Rise Set
Actual Time 6:47 AM PST 5:19 PM PST
Civil Twilight 6:21 AM PST 5:45 PM PST
Nautical Twilight 5:51 AM PST 6:15 PM PST
Astronomical Twilight 5:21 AM PST 6:44 PM PST
Moon 11:14 AM PST (1/31) 12:38 AM PST (1/31)
Length of Visible Light 11h 24m
Length of Day
10h 31m
First Quarter, 56% of the Moon is Illuminated
Jan 31
First Quarter
Feb 7
Full
Feb 14
Last Quarter
Feb 21
New
Feb 29
First Quarter

Hourly Weather History & Observations

Time (PST) Temp. Windchill Dew Point Humidity Pressure Visibility Wind Dir Wind Speed Gust Speed Precip Events Conditions
12:53 AM 48.0 °F - 35.1 °F 61% 29.98 in 10.0 mi Calm Calm - N/A   Clear
1:53 AM 48.0 °F - 30.0 °F 50% 29.99 in 10.0 mi Calm Calm - N/A   Clear
2:53 AM 46.0 °F - 34.0 °F 63% 30.00 in 10.0 mi Calm Calm - N/A   Clear
3:53 AM 45.0 °F 43.5 °F 28.9 °F 53% 30.00 in 10.0 mi ESE 3.5 mph - N/A   Clear
4:53 AM 43.0 °F 40.3 °F 30.0 °F 60% 30.00 in 10.0 mi NE 4.6 mph - N/A   Clear
5:53 AM 42.1 °F - 30.9 °F 65% 30.01 in 10.0 mi Calm Calm - N/A   Clear
6:53 AM 43.0 °F - 30.0 °F 60% 30.04 in 10.0 mi Calm Calm - N/A   Clear
7:53 AM 45.0 °F - 30.0 °F 56% 30.06 in 10.0 mi Calm Calm - N/A   Clear
8:53 AM 48.9 °F - 28.9 °F 46% 30.06 in 10.0 mi Variable 3.5 mph - N/A   Clear
9:53 AM 55.0 °F - 30.0 °F 38% 30.07 in 10.0 mi West 4.6 mph - N/A   Clear
10:53 AM 57.9 °F - 30.9 °F 36% 30.06 in 10.0 mi WSW 4.6 mph - N/A   Clear
11:53 AM 63.0 °F - 30.9 °F 30% 30.04 in 10.0 mi Variable 3.5 mph - N/A   Clear
12:53 PM 66.0 °F - 26.1 °F 22% 30.01 in 10.0 mi Variable 4.6 mph - N/A   Scattered Clouds
1:53 PM 66.9 °F - 27.0 °F 22% 29.99 in 10.0 mi WNW 3.5 mph - N/A   Scattered Clouds
2:53 PM 68.0 °F - 21.9 °F 17% 30.00 in 10.0 mi WNW 5.8 mph - N/A   Mostly Cloudy
3:53 PM 66.0 °F - 37.9 °F 36% 30.02 in 10.0 mi West 12.7 mph 18.4 mph N/A   Mostly Cloudy
4:53 PM 61.0 °F - 45.0 °F 56% 30.05 in 10.0 mi West 9.2 mph - N/A   Mostly Cloudy
5:53 PM 57.0 °F - 44.1 °F 62% 30.08 in 10.0 mi West 5.8 mph - N/A   Mostly Cloudy
6:53 PM 55.0 °F - 44.1 °F 67% 30.11 in 10.0 mi Calm Calm - N/A   Mostly Cloudy
7:53 PM 54.0 °F - 43.0 °F 66% 30.13 in 10.0 mi Calm Calm - N/A   Clear
8:53 PM 53.1 °F - 42.1 °F 66% 30.13 in 10.0 mi ENE 3.5 mph - N/A   Clear
9:53 PM 50.0 °F - 42.1 °F 74% 30.13 in 10.0 mi Calm Calm - N/A   Clear
10:53 PM 48.9 °F - 39.9 °F 71% 30.14 in 10.0 mi Calm Calm - N/A   Clear
11:53 PM 48.0 °F - 39.9 °F 74% 30.15 in 10.0 mi Calm Calm - N/A   Clear